Regional Weather Roundup
Issued by NWS

Home | Current Version | Previous Version | Text Only | Print | Product List | Glossary On
Versions: 1 2 3 4 5 6 7 8 9 10 11 12 13 14 15 16 17 18 19 20 21 22 23 24 25 26 27 28 29 30 31 32 33 34 35 36 37 38 39 40 41 42 43 44 45 46 47 48 49 50
737
ASUS44 KLIX 291201
RWRLA
LOUISIANA WEATHER ROUNDUP
NATIONAL WEATHER SERVICE NEW ORLEANS LA
600 AM CST THU JAN 29 2015

NOTE: "FAIR" INDICATES FEW OR NO CLOUDS BELOW 12,000 FEET WITH NO
      SIGNIFICANT WEATHER AND/OR OBSTRUCTIONS TO VISIBILITY.
      SKY/WX - SKY CONDITION AND SIGNIFICANT WEATHER.
      TMP - AIR TEMPERATURE.    DP   - DEWPOINT TEMPERATURE.
      RH  - RELATIVE HUMIDITY.  PRES - PRESSURE.
      HX  - HEAT INDEX.         WCI  - WIND CHILL INDEX.

*  THESE STATIONS ARE NOT NWS OR FAA STATIONS AND ARE NOT UNDER
   NWS QUALITY CONTROL.

LAZ040-048-061>063-065-066-069-291300-
SOUTHEAST LOUISIANA

CITY           SKY/WX    TMP DP  RH WIND       PRES   REMARKS
N.O. AUDUBON   NOT AVBL
N.O. INTL ARPT PTCLDY    47  44  90 SE6       30.22F
6HR MIN TEMP:  45; 6HR MAX TEMP:  50;

N.O. LAKEFRONT CLEAR     51  47  86 SE6       30.23F
6HR MIN TEMP:  49; 6HR MAX TEMP:  53;

N.O. DOWNTOWN* NOT AVBL
SLIDELL        CLEAR     36  34  92 CALM      30.23F
6HR MIN TEMP:  36; 6HR MAX TEMP:  43;

BATON ROUGE    CLEAR     43  41  93 CALM      30.20R FOG
6HR MIN TEMP:  41; 6HR MAX TEMP:  46;

BOOTHVILLE     CLEAR     51  47  86 E6        30.25S
6HR MIN TEMP:  48; 6HR MAX TEMP:  53;

BELLE CHASSE   CLEAR     41  37  86 CALM      30.23F
6HR MIN TEMP:  40; 6HR MAX TEMP:  44;

BOGALUSA*        N/A     37  34  90 CALM      30.24S
6HR MIN TEMP:  36; 6HR MAX TEMP:  43;

GALLIANO*      NOT AVBL
NEW ROADS*     NOT AVBL
GONZALES*      NOT AVBL
HAMMOND*       NOT AVBL
HOUMA*         PTCLDY    43  43 100 CALM      30.23S FOG
PORT FOURCHON* SUNNY     63  59  88 SE6       30.27R

$$

LAZ041-044-053-054-291300-
SOUTHWEST LOUISIANA

CITY           SKY/WX    TMP DP  RH WIND       PRES   REMARKS
LAKE CHARLES   FOG       53  53 100 CALM      30.18R VSB<1/4
6HR MIN TEMP:  49; 6HR MAX TEMP:  53;

LAFAYETTE      PTCLDY    50  49  96 CALM      30.19R FOG
6HR MIN TEMP:  49; 6HR MAX TEMP:  53;

PATTERSON      CLEAR     55  52  88 SE8       30.21S
6HR MIN TEMP:  48; 6HR MAX TEMP:  55;

SALT POINT       N/A     55  53  93 SE7       30.18F
6HR MIN TEMP:  52; 6HR MAX TEMP:  55; 6HR PCP:  0.01;

NEW IBERIA     CLEAR     51  50  96 CALM      30.19S FOG
6HR MIN TEMP:  48; 6HR MAX TEMP:  52;

CHENAULT AIRPK NOT AVBL

$$

LAZ027-028-291300-
CENTRAL LOUISIANA

CITY           SKY/WX    TMP DP  RH WIND       PRES   REMARKS
FORT POLK      FOG       55  54  98 SW8       30.17R VSB 3/4
6HR MIN TEMP:  54; 6HR MAX TEMP:  55;

ALEXANDRIA INT FOG       55  55 100 SW7       30.16R VSB 1
6HR MIN TEMP:  49; 6HR MAX TEMP:  56;

ALEXANDRIA     CLOUDY    56  54  93 SW6       30.17S FOG
6HR MIN TEMP:  46; 6HR MAX TEMP:  56;


$$

LAZ001-002-291300-
NORTHWEST LOUISIANA

CITY           SKY/WX    TMP DP  RH WIND       PRES   REMARKS
SHREVEPORT     MOCLDY    55  53  93 SW12      30.11S
6HR MIN TEMP:  54; 6HR MAX TEMP:  58;

BARKSDALE AFB  PTCLDY    53  53 100 S7        30.12R
6HR MIN TEMP:  47; 6HR MAX TEMP:  53;

DTN SHREVEPORT PTCLDY    53  50  89 S7        30.12R
6HR MIN TEMP:  53; 6HR MAX TEMP:  58;


$$

LAZ014-016-291300-
NORTHEAST LOUISIANA

CITY           SKY/WX    TMP DP  RH WIND       PRES   REMARKS
MONROE         PTCLDY    52  50  93 SW7       30.15R
6HR MIN TEMP:  52; 6HR MAX TEMP:  57;

TALLULAH       PTCLDY    51  43  74 S5        30.16S
6HR MIN TEMP:  47; 6HR MAX TEMP:  54;


$$




USA.gov is the U.S. government's official web portal to all federal, state and local government web resources and services.